Wind_Speed
15 16 16 15 14 14 13 12 12 10 9 9 8 7 7 7 7 7 8 8 9 9 9 9 9 8 9 9 9 8 8 9 9 9 9 8 9 10 11 12 13 13 14 14 14 14 14 14 13 12 12 12 12 13 13 13 13 13 13 13 14 14 14 14 15 16 16 16 18 19 20 20 19 20 20 20 20 19 19 18 16 16 16 14 13
14 15 16 16 14 14 14 12 12 12 10 9 8 7 7 7 8 8 8 9 10 10 10 10 10 9 8 9 9 8 8 8 8 8 9 8 8 9 10 11 12 13 13 13 13 14 14 14 13 12 11 11 11 12 12 12 12 12 12 13 13 13 14 14 15 16 15 16 17 18 19 19 19 19 18 18 18 18 17 16 14 14 13 12 12
13 14 16 17 16 14 14 14 13 12 10 9 8 7 7 7 8 8 9 10 10 10 11 11 11 10 9 9 8 8 7 7 7 7 8 8 8 8 10 10 11 12 12 13 13 13 13 13 13 12 11 11 11 11 11 11 11 11 12 12 12 12 14 14 15 15 15 15 16 17 17 18 19 18 16 17 16 16 15 14 13 12 11 11 11
14 14 16 18 18 16 16 15 13 12 10 9 8 7 7 7 7 8 9 10 11 11 11 11 11 10 10 10 9 8 7 7 7 7 7 7 8 9 9 10 10 11 11 11 12 12 12 12 12 11 11 11 10 10 10 10 9 10 11 12 12 12 13 14 14 14 14 14 14 15 15 15 17 17 15 15 14 14 13 12 11 10 10 11 11
15 15 15 17 20 19 18 16 15 13 12 11 9 8 7 7 7 8 9 10 11 11 11 11 11 10 10 10 9 8 7 6 6 6 7 7 8 8 9 9 10 10 10 11 11 11 10 11 11 11 11 10 10 10 9 9 9 9 9 10 11 11 12 13 13 13 13 13 13 13 14 13 14 14 14 13 11 11 12 11 10 8 9 11 12
15 16 16 17 19 21 20 18 17 16 14 12 10 8 7 7 8 8 9 10 11 11 11 11 10 10 10 9 9 8 8 7 7 7 7 8 8 8 8 9 9 9 9 10 10 10 10 9 10 10 10 10 10 9 9 8 8 8 8 9 10 11 11 11 11 12 11 11 11 11 11 11 12 12 11 11 11 10 10 9 9 8 8 11 12
15 16 16 17 18 20 21 20 19 18 16 14 11 9 8 8 8 9 9 10 10 11 10 10 10 9 9 9 9 9 8 8 8 8 8 8 8 8 8 8 8 9 9 9 10 10 10 9 9 9 9 9 9 9 9 8 8 8 8 8 8 9 10 9 9 10 10 9 9 9 9 9 10 10 9 9 9 10 8 7 8 9 9 11 11
16 16 16 16 16 18 20 21 20 19 17 15 13 12 10 10 9 9 10 10 10 10 10 10 10 9 9 9 9 9 8 8 8 7 8 8 8 8 8 8 8 8 8 8 9 10 10 9 9 9 9 9 9 8 8 8 7 7 7 7 7 7 8 8 8 8 8 8 7 7 7 7 8 8 8 7 7 7 7 7 7 9 10 11 10
15 16 16 16 17 17 19 21 22 20 18 17 15 14 12 11 11 10 10 10 10 10 10 10 10 10 10 10 10 9 9 8 7 6 7 7 8 8 8 7 7 7 7 8 8 9 9 9 10 9 9 8 8 8 7 7 7 6 6 6 6 6 6 6 7 6 6 6 6 6 6 6 6 6 6 6 6 5 6 7 8 10 11 10 9
16 17 18 17 17 18 18 21 22 22 20 18 17 15 14 13 12 11 11 11 10 10 11 11 11 11 11 11 11 10 9 9 8 7 6 6 8 8 8 7 7 7 7 7 7 8 8 8 9 9 9 8 8 8 7 6 6 6 6 6 5 5 5 5 5 5 5 5 5 5 5 5 5 5 5 5 5 5 5 5 7 11 12 11 11
17 18 18 17 17 18 19 20 22 23 22 20 19 17 15 14 13 12 11 11 11 11 11 12 12 12 12 13 12 11 10 9 8 7 7 7 7 8 7 7 7 6 6 7 7 7 7 7 7 8 8 7 8 8 7 6 6 5 5 5 5 5 5 4 4 4 3 3 4 4 5 5 5 5 4 4 4 5 5 5 6 10 12 11 11
15 16 15 15 16 17 18 19 20 21 22 22 20 19 17 16 15 14 12 11 11 12 12 13 13 14 14 14 13 12 11 10 8 8 8 8 7 8 7 7 7 6 6 6 7 7 7 7 7 7 6 6 7 7 6 6 5 5 5 4 4 4 4 4 4 3 3 3 3 4 4 5 5 5 5 4 4 4 6 7 7 9 10 11 10
14 15 15 15 17 18 17 18 18 19 21 21 21 20 19 18 16 15 14 12 12 12 13 14 15 15 15 14 13 12 12 11 9 9 8 8 8 8 8 7 7 6 6 6 6 7 7 7 6 6 6 5 5 5 5 5 5 4 4 4 4 3 4 4 3 3 3 3 3 4 4 4 5 5 5 4 4 4 5 7 8 8 8 9 9
14 16 18 17 19 21 19 18 17 18 18 19 20 21 20 19 18 16 15 14 13 13 13 14 15 16 16 15 14 13 13 12 11 10 9 9 9 8 8 7 7 7 6 6 6 6 7 7 6 6 6 5 5 4 4 4 4 3 3 3 3 2 2 3 4 3 3 3 3 3 4 4 4 4 4 4 4 4 4 6 8 8 8 7 7
14 16 18 18 20 21 18 17 20 20 19 18 19 20 21 21 20 18 17 15 14 14 14 15 16 17 17 16 15 14 14 13 12 12 11 10 9 9 9 8 7 7 6 5 5 5 6 6 6 6 6 5 4 4 3 3 3 3 3 3 2 2 1 1 2 3 3 3 3 3 4 4 3 3 3 4 4 3 4 4 6 7 7 7 6
16 16 17 17 19 19 17 20 24 23 21 20 19 20 21 22 22 21 19 17 16 15 14 15 15 16 17 16 16 15 15 15 14 12 12 11 10 10 10 9 8 7 6 5 5 5 5 5 5 6 6 6 4 4 3 2 2 3 2 2 2 2 1 1 1 2 3 3 3 3 4 3 3 2 2 2 2 3 3 4 4 5 6 6 5
19 17 16 16 17 18 19 21 24 23 21 21 20 20 20 22 23 23 21 19 18 17 15 15 15 16 16 16 15 16 16 16 15 14 13 12 12 12 11 10 9 7 6 5 5 5 5 5 4 4 5 6 5 4 4 3 2 2 2 2 2 2 2 2 2 2 2 2 3 3 4 3 3 3 2 1 2 2 2 3 4 5 5 5 5
19 18 17 16 16 18 19 22 24 20 19 21 21 20 19 20 22 23 22 21 20 19 17 16 16 16 16 15 15 16 17 17 16 15 15 15 14 13 12 11 10 9 8 7 6 6 5 5 5 5 5 5 6 6 5 4 4 3 3 3 3 3 2 2 2 2 2 2 2 3 3 3 3 3 3 3 2 2 3 3 4 5 5 5 5
20 18 18 18 18 19 20 23 26 23 21 22 21 20 19 19 20 22 23 23 22 21 19 17 17 16 16 16 15 16 16 17 17 17 17 17 16 15 14 13 12 11 10 9 8 7 7 6 6 6 6 6 6 6 7 6 6 5 4 4 4 4 4 3 3 2 2 2 2 3 3 3 3 4 4 4 3 3 3 4 4 5 6 6 6
22 20 19 19 19 19 17 19 26 26 23 23 22 21 20 20 20 21 22 23 23 22 21 20 18 17 16 16 15 15 16 16 17 17 18 18 17 16 15 14 13 12 12 11 10 9 8 8 7 7 7 6 6 7 7 7 8 7 6 6 5 5 5 5 4 3 3 3 4 4 4 4 3 4 4 4 4 5 5 5 5 5 6 6 6
23 21 20 18 18 19 16 15 22 25 21 22 23 22 22 22 21 21 22 23 23 22 23 22 21 19 18 16 16 15 15 16 16 17 18 18 17 17 16 15 14 14 13 12 11 10 9 9 9 8 8 7 7 7 7 8 8 8 8 8 7 7 7 6 6 5 5 5 5 5 5 4 4 4 5 5 5 5 5 5 5 6 6 7 7
24 23 22 20 18 18 18 15 18 22 21 21 22 21 22 23 22 22 22 22 23 23 24 24 23 22 21 19 18 16 15 15 16 16 17 17 18 18 17 17 16 15 14 13 12 11 10 10 10 10 9 9 8 7 7 7 8 8 8 8 8 8 8 8 8 7 7 7 7 6 6 5 5 6 5 6 6 6 6 6 6 6 6 7 8
27 25 24 23 21 19 17 15 16 20 21 21 21 22 23 24 24 23 22 23 23 23 23 24 24 24 24 22 20 18 16 16 15 16 16 17 18 18 18 18 17 16 15 14 14 13 12 11 11 11 10 10 9 8 7 7 7 8 8 8 8 9 8 9 8 8 8 9 8 7 7 6 6 6 6 7 7 7 7 7 7 7 7 8 8
28 27 25 26 24 21 18 15 15 21 23 21 22 24 24 24 23 22 22 23 24 23 23 25 24 24 25 25 23 20 18 17 16 16 16 16 17 17 18 19 18 17 16 16 15 14 13 13 12 12 12 11 10 8 8 8 7 8 8 8 8 8 8 9 9 9 10 10 10 9 8 8 7 7 7 7 8 8 8 8 8 9 9 9 9
30 29 27 27 26 23 21 17 14 19 24 24 24 25 25 24 22 21 21 23 25 24 25 26 26 25 24 25 25 24 21 19 18 17 17 17 17 16 17 18 19 19 18 17 16 16 15 14 14 13 12 12 11 10 9 8 8 8 8 8 8 8 8 9 10 10 11 11 11 10 9 9 9 8 8 8 8 9 10 10 10 10 10 10 10
32 31 29 28 28 26 24 22 19 18 21 25 25 26 26 24 22 21 23 25 28 27 26 27 27 26 25 25 25 25 24 22 21 20 19 18 17 17 17 18 18 19 19 18 17 17 17 16 15 14 13 13 12 11 10 9 9 8 8 7 8 8 8 9 10 11 11 12 12 11 11 11 10 10 9 9 9 9 10 11 12 12 12 12 12
34 33 32 30 29 28 26 25 24 22 22 24 25 25 26 26 24 25 26 28 30 30 29 29 28 28 28 27 26 26 26 25 25 24 22 20 19 18 18 18 18 18 19 19 19 18 18 18 17 16 15 14 13 12 11 10 10 9 8 8 8 8 9 9 10 11 11 12 12 13 13 12 12 12 11 10 10 10 10 11 12 13 13 14 14
37 36 34 33 31 31 30 29 28 27 26 26 26 26 27 28 28 29 29 30 30 30 30 29 28 28 28 27 28 29 28 27 27 26 25 23 21 20 19 18 18 18 18 19 19 19 19 19 18 17 16 15 14 13 13 12 11 11 10 9 9 8 9 10 10 11 12 12 13 13 14 14 14 13 13 12 12 12 11 12 12 12 13 14 14
39 38 37 35 34 33 33 33 32 31 31 30 27 25 26 26 28 30 31 30 29 28 28 27 27 27 28 30 32 32 28 27 27 26 26 26 24 22 21 20 19 18 18 18 18 19 19 19 19 18 18 17 16 15 15 15 14 13 12 11 10 9 9 10 11 11 12 13 13 13 14 15 15 15 15 14 14 14 14 13 13 12 12 13 13
41 40 39 38 36 36 36 36 35 34 34 32 28 25 23 22 23 27 30 29 28 27 27 26 25 25 27 30 33 33 30 28 28 27 27 26 25 24 23 22 21 20 19 18 18 18 19 19 19 19 19 18 17 17 17 17 16 15 14 13 12 11 10 10 11 11 12 13 13 14 14 15 15 16 16 17 16 16 15 15 14 14 14 13 13
41 42 41 39 38 38 37 38 37 37 36 34 31 28 25 21 20 23 26 27 27 26 26 26 25 25 27 29 30 31 31 30 29 28 27 28 27 26 25 24 23 22 21 21 20 19 19 19 19 20 19 19 18 18 18 19 18 17 16 15 13 12 12 11 11 12 12 13 14 14 14 15 15 16 17 17 18 17 17 17 16 16 16 15 15
41 43 43 42 41 39 38 39 39 38 37 35 34 33 30 27 25 23 24 25 25 25 27 29 28 27 29 30 29 29 30 31 30 28 28 31 32 30 28 26 25 24 24 23 22 22 21 21 20 20 20 19 19 19 19 20 20 20 19 17 16 14 13 13 12 12 12 13 14 14 15 15 15 15 16 17 17 17 18 18 18 18 17 17 16
40 42 44 44 43 42 40 40 40 40 39 37 36 35 33 32 29 27 26 26 25 26 28 31 32 31 31 32 31 29 29 31 30 28 29 33 34 33 32 30 28 27 25 25 25 24 24 23 23 22 22 21 21 21 20 21 22 22 21 20 18 17 16 15 14 13 13 13 14 15 15 15 15 16 16 16 16 17 17 18 18 18 17 17 17
40 41 43 45 45 44 43 42 41 42 41 40 38 36 35 33 32 30 29 28 28 28 27 30 34 36 35 33 32 31 30 31 31 30 30 31 33 34 33 31 30 28 26 25 24 24 24 25 24 24 24 23 23 23 23 23 23 24 25 23 21 19 18 17 16 15 15 15 15 15 15 16 16 17 16 17 17 17 17 17 17 17 17 16 16
41 41 42 44 45 45 45 44 44 43 43 43 41 39 37 36 35 34 32 31 31 30 28 28 32 36 37 35 34 33 32 33 32 31 30 31 32 32 32 30 29 28 27 26 25 24 26 25 23 23 24 24 24 24 24 24 25 26 27 27 25 22 20 19 18 18 18 17 17 17 17 17 17 17 17 18 18 18 18 17 17 17 17 16 16
43 42 42 43 44 46 46 46 46 45 44 44 44 42 40 39 38 37 36 34 34 33 31 30 31 33 35 36 36 35 34 34 34 33 31 30 31 31 30 29 28 28 29 30 27 26 27 26 24 24 25 25 25 26 26 26 26 28 29 29 28 25 23 21 21 21 20 20 20 19 19 18 18 18 19 19 19 20 20 19 18 18 18 17 16
44 44 44 44 44 45 47 47 48 47 46 46 46 45 43 41 40 40 39 38 37 37 36 35 33 33 33 35 37 37 36 36 36 35 32 31 30 29 28 27 28 28 29 29 27 26 25 24 23 24 26 26 27 28 29 29 28 28 29 30 30 29 26 24 23 22 22 22 22 21 21 20 19 19 20 21 22 22 22 21 20 20 20 18 18
45 45 45 46 46 46 47 48 48 49 49 48 48 48 46 45 43 42 42 41 40 40 40 39 38 36 34 34 35 35 36 37 38 37 35 33 32 31 29 28 29 29 28 27 27 26 24 23 23 23 24 26 27 29 30 31 31 30 30 31 31 31 29 27 25 25 25 25 25 24 24 23 22 22 22 23 24 24 24 23 23 23 22 20 19
48 47 46 47 48 47 48 48 48 50 51 51 51 50 50 49 47 46 45 44 43 43 44 43 42 41 38 36 35 34 34 35 38 39 38 36 35 34 32 30 30 30 30 28 28 27 26 24 24 24 25 26 28 29 29 30 32 32 32 33 34 33 31 29 28 28 28 28 28 28 27 27 25 25 26 26 26 26 26 26 26 26 24 21 22
49 49 49 50 49 49 50 50 49 50 51 52 52 53 53 53 52 50 49 48 47 46 46 46 46 45 44 41 39 37 35 35 36 39 40 40 38 37 35 33 30 30 30 28 28 28 27 25 24 24 26 27 27 27 28 30 31 33 33 34 35 35 34 33 31 31 30 29 29 29 30 30 29 29 29 29 29 29 28 28 29 29 25 23 25
50 50 50 51 51 51 52 52 51 52 52 52 53 54 55 56 55 54 53 53 51 50 49 49 49 48 48 47 45 43 41 38 37 38 39 40 40 39 37 35 33 32 31 30 29 29 27 26 25 25 26 27 26 26 28 30 31 32 33 34 35 35 35 35 34 33 32 32 31 31 31 32 33 33 33 33 33 32 32 32 32 29 26 26 28
50 51 51 51 52 53 53 53 53 53 54 54 54 55 56 57 58 58 57 56 56 55 53 53 53 52 51 50 50 49 48 45 42 40 39 40 40 40 38 37 36 36 35 34 33 32 30 28 27 27 27 28 27 28 28 29 30 32 33 34 34 35 35 36 35 34 33 34 35 35 35 35 35 34 34 34 34 34 35 35 33 30 28 28 29
48 50 51 50 51 53 54 55 55 55 55 55 55 55 56 57 58 59 59 59 60 60 59 57 57 56 56 55 54 53 53 51 49 46 43 42 41 41 40 40 40 38 36 34 33 33 32 30 29 28 29 29 29 29 29 29 30 31 32 34 34 35 35 36 36 34 33 34 36 38 38 37 35 34 34 35 35 35 36 35 33 32 30 30 30
48 49 50 49 50 51 52 54 55 56 56 56 56 56 57 58 58 59 60 61 61 62 63 62 62 61 60 60 59 58 57 56 55 53 50 47 45 44 43 44 43 39 36 33 31 31 32 32 31 31 32 32 32 31 30 30 31 32 32 33 34 35 35 35 35 35 35 35 35 36 37 36 35 34 34 34 34 35 35 34 33 33 32 31 30
50 50 49 49 49 50 51 51 53 54 55 56 57 57 57 58 58 59 60 60 61 62 63 64 65 65 64 64 63 62 61 60 59 58 56 53 51 49 48 47 46 42 39 36 33 32 32 33 33 32 33 34 34 33 32 32 32 33 33 33 34 35 35 35 35 35 36 36 36 36 37 36 35 35 34 33 34 36 35 34 33 33 33 32 30
48 49 49 48 48 49 50 50 51 52 53 54 56 57 57 57 58 59 60 60 61 62 62 62 64 65 66 66 66 65 64 63 62 62 60 58 56 54 51 51 50 47 44 42 40 37 35 35 35 35 34 33 33 34 34 34 34 34 35 36 36 35 35 36 35 36 37 37 36 36 37 37 36 35 33 33 34 36 37 36 34 33 32 31 29
46 47 47 48 47 48 49 50 50 51 51 52 53 54 56 56 57 58 59 60 60 61 62 62 63 64 65 66 66 66 65 65 64 63 63 62 60 58 55 53 53 52 49 47 46 44 41 39 38 37 36 35 34 34 35 36 36 36 37 38 37 36 36 37 37 38 39 38 36 36 37 37 36 35 33 33 34 35 37 37 34 31 30 30 30
45 46 46 47 47 47 47 48 49 50 51 51 52 53 54 55 56 57 58 59 60 60 61 62 62 63 64 66 67 66 66 65 65 65 64 64 63 61 58 56 55 55 54 52 50 49 48 45 42 40 39 38 37 37 37 37 37 38 39 40 39 37 37 37 38 40 42 41 39 37 37 37 37 35 34 34 35 35 34 33 31 30 30 31 33
46 46 46 46 46 46 47 47 48 50 51 51 52 52 53 53 54 55 56 57 58 59 59 60 61 61 63 65 67 67 66 65 66 66 66 66 65 64 62 60 59 58 57 56 54 53 52 51 48 45 44 43 42 41 40 39 39 39 39 40 40 39 38 38 40 41 42 41 40 39 38 38 38 38 38 37 36 35 32 29 28 29 30 33 35
48 47 47 47 47 47 47 48 48 49 50 51 52 53 53 53 54 54 55 56 57 57 58 58 59 59 61 63 65 66 66 66 67 67 67 67 67 67 66 64 62 61 60 59 58 57 56 55 53 51 49 47 46 45 44 42 41 41 40 40 40 40 40 40 42 43 41 39 39 39 39 39 40 41 41 40 38 36 34 31 30 30 32 34 37
50 50 49 49 49 49 49 49 49 50 51 52 53 53 54 54 54 54 55 55 56 57 57 58 58 58 59 60 62 63 65 66 67 68 68 68 68 68 68 67 66 65 64 63 62 61 61 59 57 56 54 52 50 49 47 46 44 43 41 41 41 41 40 40 42 43 40 38 38 40 39 39 40 41 41 40 39 39 37 35 33 31 32 34 35
Wind_Direction
197 198 193 187 181 180 182 178 174 176 177 177 175 175 175 171 169 159 151 150 151 151 151 149 147 141 133 129 126 121 115 112 109 104 97 97 103 105 108 112 116 122 127 128 125 119 116 116 116 115 113 110 108 106 105 104 102 99 96 95 92 92 96 98 99 100 103 107 109 109 109 108 109 110 111 113 114 114 115 118 119 118 119 119 115
197 199 198 192 187 184 183 180 178 179 178 180 178 174 178 174 168 163 154 154 158 161 162 159 155 150 143 135 130 126 124 119 111 106 103 102 104 104 105 108 112 118 124 128 128 123 119 119 119 118 116 113 110 107 105 105 103 99 96 94 93 95 98 99 99 102 106 109 111 112 111 111 111 110 113 116 115 115 116 117 117 116 116 116 114
197 196 197 195 193 190 187 185 184 182 179 181 182 175 181 179 168 165 162 160 165 170 170 167 164 159 152 145 137 135 132 121 113 107 106 110 111 106 103 106 111 115 121 126 128 126 122 121 120 120 118 114 111 109 108 107 103 99 95 93 93 95 98 99 99 102 107 110 113 113 114 116 115 114 116 116 115 115 117 117 116 116 116 115 115
198 196 195 195 197 197 194 191 187 186 184 185 188 183 181 181 172 169 170 168 171 178 176 173 172 166 161 155 146 144 140 129 124 116 112 117 115 108 104 105 108 113 117 122 125 127 126 123 121 120 118 117 114 113 113 111 106 101 98 96 96 95 97 100 101 103 108 111 114 116 117 118 118 118 120 118 117 118 118 117 117 119 119 118 118
201 198 196 196 199 201 199 196 192 191 191 191 192 189 181 179 179 176 176 177 179 183 181 178 178 172 167 161 151 150 148 140 134 128 126 126 117 108 105 103 104 108 112 117 122 127 128 126 123 121 119 118 115 114 113 112 109 105 103 103 101 99 98 101 104 106 110 112 114 118 120 120 120 121 123 121 120 120 121 121 122 124 123 123 122
211 204 199 199 202 204 203 202 199 197 196 196 194 193 183 179 185 184 184 186 186 188 184 182 183 176 171 165 155 156 155 148 144 145 140 130 121 113 108 104 103 104 107 113 119 124 128 127 125 123 121 118 116 114 112 111 111 110 108 107 105 103 102 103 108 110 112 114 117 121 123 123 123 124 125 125 123 122 122 123 126 128 126 125 125
217 213 204 202 205 206 206 206 206 203 200 198 196 195 187 183 189 190 193 195 192 191 185 183 184 178 174 169 164 164 161 156 154 155 144 129 125 122 115 110 105 102 103 108 113 118 123 125 126 124 122 120 118 116 114 112 113 112 111 109 105 104 104 106 110 113 115 116 119 124 126 126 127 128 128 128 128 128 127 125 127 133 132 128 126
210 216 212 209 210 209 208 211 211 209 206 201 198 196 191 187 192 195 199 201 196 191 185 182 182 179 178 178 177 175 169 165 163 156 143 131 132 129 122 118 113 109 108 107 109 112 116 120 121 123 124 123 121 118 118 117 117 116 115 111 107 105 108 110 111 114 118 123 126 128 129 128 129 131 131 132 131 128 131 129 126 131 132 128 127
208 214 216 214 214 213 212 214 214 214 212 207 202 199 195 192 195 200 204 205 199 189 183 182 181 178 181 187 188 184 178 172 167 160 150 143 142 136 131 128 122 118 115 112 111 110 112 114 116 119 122 124 123 122 122 124 124 123 121 117 114 113 115 119 119 121 126 132 136 136 135 135 136 137 138 141 136 129 133 134 132 135 136 133 131
212 211 214 214 216 216 216 216 215 215 215 213 208 203 199 196 198 204 208 209 202 190 183 181 181 181 184 192 194 192 188 178 172 166 157 152 148 142 139 135 130 125 122 118 116 115 113 112 112 114 118 121 123 124 125 128 129 129 130 128 128 129 130 134 134 135 140 142 144 145 144 144 144 144 145 149 145 137 136 135 138 143 144 143 140
216 214 214 216 222 222 220 220 216 214 215 215 213 208 204 201 201 206 210 212 207 195 186 182 181 184 188 195 197 196 194 185 177 169 159 158 156 151 148 143 139 134 129 125 122 120 115 111 112 111 113 116 117 119 121 125 126 126 132 136 140 144 145 149 149 150 154 158 157 156 153 151 150 148 147 156 152 137 132 130 142 147 148 148 146
226 225 221 222 230 233 231 227 219 214 214 214 214 211 208 206 205 207 210 213 212 200 191 186 185 187 193 199 200 198 197 191 181 175 168 166 164 162 159 156 156 149 140 135 127 124 120 115 115 113 113 115 113 115 119 120 119 118 123 129 137 146 152 154 159 165 169 173 175 171 165 160 156 152 151 160 157 142 135 137 149 156 153 151 148
232 233 229 226 232 234 234 236 231 221 216 214 215 214 212 210 209 211 212 214 216 209 197 192 191 193 198 202 201 198 197 193 187 183 179 175 170 171 170 170 172 167 159 150 138 134 130 124 122 119 117 118 116 118 121 119 117 118 118 118 127 142 152 153 157 169 171 174 186 185 176 169 163 158 153 156 158 149 141 139 146 156 157 152 149
231 231 228 229 230 223 222 232 234 229 225 218 215 216 216 216 214 215 217 216 218 217 206 199 197 198 202 204 201 199 198 195 193 189 187 183 176 174 179 184 185 183 178 166 152 148 141 135 134 128 122 118 119 123 126 125 123 123 123 123 126 140 155 154 154 165 168 171 188 194 185 179 177 167 152 153 158 148 141 141 144 152 159 157 150
229 231 227 226 225 217 216 226 224 223 230 226 216 216 217 220 220 219 220 219 219 222 216 209 205 204 205 205 202 199 198 200 199 194 191 188 182 180 185 191 195 195 190 180 171 168 159 153 148 141 133 128 129 132 134 135 132 132 138 137 138 151 179 170 162 170 175 174 186 204 201 191 191 184 160 153 153 148 145 143 144 152 157 157 156
222 230 231 226 223 221 226 233 224 217 222 224 219 217 216 218 222 222 221 222 220 223 223 218 216 213 210 208 204 200 200 203 203 199 195 193 189 189 191 194 198 202 200 195 194 190 182 174 166 158 150 145 146 146 148 158 154 149 155 158 164 184 217 235 204 189 189 184 187 207 212 206 213 215 189 158 154 166 163 148 150 155 154 159 168
219 225 232 232 232 236 240 238 226 213 214 220 220 218 217 218 221 223 222 223 223 224 225 224 224 223 220 215 208 204 204 206 205 202 200 199 198 197 197 198 200 203 206 208 210 209 205 196 189 181 169 162 163 165 169 178 183 178 177 181 203 216 225 247 254 234 218 206 200 211 214 211 223 232 229 210 196 201 187 166 167 166 164 176 186
225 227 231 232 237 242 241 234 227 220 222 226 223 219 221 222 223 224 223 223 223 223 224 225 226 229 228 223 216 210 209 209 207 204 203 203 204 203 203 204 203 203 207 212 215 220 220 214 208 204 194 184 183 184 182 186 199 205 199 203 219 228 227 239 255 257 255 248 231 226 221 215 218 225 231 234 226 224 213 196 187 182 184 192 199
238 236 236 236 236 236 235 228 223 222 225 230 228 223 225 229 228 227 226 225 225 223 222 225 227 231 232 231 226 219 215 214 211 208 206 207 208 209 209 210 209 207 209 212 216 221 227 227 222 216 210 201 198 197 193 191 200 209 213 218 226 234 233 233 244 257 267 269 258 243 233 225 221 219 224 234 234 226 219 212 203 200 202 207 211
243 241 240 244 243 241 248 240 225 218 218 226 229 225 226 229 230 229 229 230 229 226 223 223 226 230 233 235 235 228 222 220 218 215 213 211 212 213 215 216 215 214 213 215 217 220 227 233 232 228 223 214 207 206 203 202 202 203 210 217 225 236 242 240 242 250 260 263 257 251 244 237 233 226 222 228 235 234 227 219 215 213 213 217 222
246 244 242 248 251 249 259 253 225 214 214 221 225 224 225 228 229 231 231 232 232 230 226 223 224 227 230 233 236 234 230 226 225 224 221 219 217 217 219 221 221 221 220 219 220 221 225 231 234 232 228 223 218 212 210 210 210 207 207 210 215 225 234 240 243 245 252 256 254 252 248 244 243 239 232 230 236 241 240 235 230 226 223 225 229
248 248 246 248 252 251 258 255 227 215 217 222 225 228 229 229 231 232 233 235 237 237 233 226 223 226 228 230 231 233 232 230 230 230 228 226 223 222 223 223 224 225 225 225 226 225 225 228 232 232 230 227 225 222 220 219 221 219 216 213 214 219 225 232 237 239 245 252 255 255 253 249 247 244 240 238 238 241 243 245 246 243 238 234 235
244 249 250 249 247 245 250 251 232 221 221 224 228 232 231 228 229 231 234 239 242 245 244 237 230 227 228 230 230 230 230 230 231 233 233 232 230 229 228 227 226 226 226 228 229 229 228 227 229 231 233 232 229 228 229 230 233 234 230 223 220 222 226 231 235 237 241 247 251 254 255 252 251 248 245 241 240 242 243 244 246 249 250 246 243
242 246 251 253 252 249 248 246 230 220 219 222 226 229 229 228 226 227 232 239 243 244 242 242 240 234 231 230 231 231 230 229 229 231 234 235 235 235 234 233 232 230 226 227 230 232 231 228 228 230 232 235 235 234 235 236 239 242 243 240 233 230 232 236 239 240 242 245 246 249 252 252 252 250 248 244 242 243 243 243 243 245 249 250 250
240 243 247 254 258 258 257 255 242 224 217 219 224 226 227 227 226 227 230 236 240 237 234 239 244 242 237 234 232 231 230 230 231 231 231 235 236 237 238 238 238 237 233 229 229 232 234 231 229 229 231 233 236 238 241 243 244 245 247 248 245 242 238 238 241 243 244 246 247 247 248 250 252 251 250 248 245 244 242 242 244 244 247 249 250
240 241 243 249 254 257 260 259 255 241 226 223 225 227 226 223 222 226 230 235 238 234 231 237 241 239 240 241 238 235 231 229 232 233 231 231 233 235 238 240 241 242 241 238 233 232 234 234 232 231 231 233 235 239 243 246 249 250 249 250 250 249 246 243 242 243 245 247 248 249 248 248 250 250 251 251 248 247 244 242 243 244 245 248 249
238 240 241 244 248 252 256 257 257 254 245 235 230 227 226 223 221 223 228 233 235 235 234 236 236 236 239 244 243 239 234 231 231 233 233 231 231 232 235 238 241 242 243 244 241 237 237 237 235 233 233 235 239 243 246 248 252 254 255 255 255 254 253 250 247 246 246 247 247 248 249 249 250 250 251 252 251 251 249 246 244 244 244 246 248
234 237 239 240 242 246 249 252 254 254 253 246 236 229 226 225 223 222 224 227 232 236 235 233 234 236 240 245 242 238 236 234 231 231 233 233 232 232 235 236 238 240 241 244 244 243 242 241 239 237 237 239 242 247 250 252 253 255 257 259 259 259 259 257 253 250 248 248 248 248 248 249 251 251 251 251 252 253 253 250 248 245 244 245 247
233 235 236 237 239 241 244 247 249 251 253 249 243 240 239 235 230 227 226 228 232 235 233 231 234 238 241 244 243 240 236 233 233 234 233 233 233 234 236 238 239 238 238 241 243 245 245 245 244 243 243 244 247 250 254 255 256 256 257 258 259 261 261 261 260 256 252 251 249 249 249 250 250 251 252 252 251 252 252 251 250 249 247 247 247
231 233 235 236 236 238 241 244 246 248 249 246 243 245 247 243 237 231 229 233 237 237 233 232 234 237 237 237 237 238 234 229 234 239 238 235 234 233 234 235 238 240 240 240 240 242 244 245 246 246 247 249 253 256 258 259 260 259 258 259 260 259 260 260 261 261 258 256 254 252 252 252 253 253 252 251 250 250 250 250 250 250 249 249 248
229 230 232 234 236 237 239 242 244 246 247 245 244 245 245 246 245 239 234 236 240 239 237 233 231 233 235 233 234 238 238 235 236 240 243 242 236 232 233 233 234 238 240 241 241 241 241 242 243 245 246 248 252 256 258 260 260 260 260 260 260 260 259 258 258 259 259 258 257 256 255 255 256 256 254 252 251 250 251 250 249 249 248 248 248
229 229 230 232 233 235 237 240 243 245 246 247 248 248 249 251 254 250 243 243 245 244 241 236 232 234 237 236 238 242 245 243 236 232 237 239 234 231 232 231 231 234 236 238 239 240 240 240 240 242 243 245 247 249 253 257 258 258 257 257 257 258 258 257 257 256 257 257 258 257 256 256 258 259 258 257 254 252 251 250 250 249 248 248 247
230 229 230 231 232 233 234 237 240 243 246 248 249 250 252 252 253 251 248 246 245 245 243 239 234 234 235 234 236 240 244 245 241 236 237 238 236 235 234 230 228 231 233 236 237 238 239 239 238 239 240 241 243 243 246 250 255 256 254 252 252 252 253 254 255 255 256 256 257 257 256 255 255 257 259 260 258 256 253 251 250 249 249 248 247
230 230 230 231 231 232 233 235 237 240 243 246 248 249 251 252 251 251 250 247 244 244 245 243 238 235 234 235 235 237 240 242 241 240 240 240 240 242 240 238 237 236 237 241 244 244 245 244 244 246 245 245 245 245 243 243 247 251 252 250 247 245 246 248 249 251 252 254 255 254 254 254 253 253 255 257 259 258 255 253 251 250 249 248 248
232 231 231 231 231 232 233 234 236 238 240 243 246 247 249 251 252 252 251 250 247 245 244 246 243 239 237 238 238 238 240 241 241 239 237 237 239 240 240 243 246 246 245 247 250 251 250 248 248 252 256 256 257 257 255 253 253 253 253 252 248 244 242 242 244 245 246 248 250 251 251 252 252 252 252 252 254 256 255 253 252 252 251 251 250
235 233 233 232 232 232 233 234 235 237 238 241 244 246 247 249 251 252 252 252 251 249 245 245 245 243 242 241 240 239 240 242 244 243 240 238 238 237 237 240 242 243 245 248 252 253 252 250 248 247 249 253 257 260 261 262 263 264 263 261 258 253 247 242 242 243 244 245 247 248 250 250 251 252 252 251 251 252 252 252 251 251 252 252 252
237 235 235 235 235 234 234 235 235 236 237 238 241 244 246 247 249 251 252 252 252 253 250 247 245 244 244 244 243 241 241 242 246 247 245 241 238 235 237 240 240 240 244 250 255 257 259 260 258 253 252 253 255 256 257 258 259 263 267 269 268 265 260 255 250 249 249 249 249 249 249 250 250 251 252 251 250 250 250 250 249 248 248 249 250
238 237 237 237 237 236 236 236 236 236 237 238 239 240 242 244 246 248 250 251 252 253 254 252 249 246 245 245 245 244 243 244 246 247 245 242 237 235 236 239 240 240 242 246 249 252 254 257 257 255 256 257 257 258 259 260 258 259 262 265 267 266 266 264 262 259 258 256 255 254 252 250 250 249 249 249 249 248 248 248 248 246 245 245 247
240 240 240 239 238 239 239 238 238 238 238 238 238 239 240 241 242 244 246 248 250 252 254 255 254 252 250 248 247 246 246 247 248 247 246 242 238 237 239 240 239 237 238 242 244 244 245 246 249 250 251 252 252 254 257 259 260 261 263 264 263 263 262 262 262 261 260 259 258 257 256 253 251 249 248 248 248 248 248 247 247 245 242 243 247
242 242 243 242 241 240 240 240 240 240 239 239 239 240 240 240 241 241 242 244 247 249 252 254 256 257 255 253 250 248 248 249 249 248 248 245 242 241 242 242 240 238 238 241 245 244 243 244 247 249 250 251 252 254 255 256 257 260 262 263 263 264 263 262 260 258 258 257 256 256 256 256 254 251 250 249 249 249 248 247 247 245 242 242 245
243 243 243 243 243 243 242 241 241 242 241 240 240 241 241 241 241 240 241 242 244 245 247 250 254 256 257 257 255 253 251 250 249 248 248 247 245 244 244 242 242 243 243 244 247 246 244 245 248 248 248 251 253 253 254 256 257 258 258 259 261 263 263 262 262 261 260 257 255 253 251 252 252 252 252 252 252 252 251 250 250 248 244 241 242
246 245 244 244 245 245 245 244 243 243 243 242 242 242 242 242 242 242 241 241 242 244 245 247 249 252 254 256 257 257 256 255 252 250 250 249 248 246 244 242 242 244 244 244 246 246 245 246 249 250 250 250 251 252 254 256 257 258 258 259 260 261 261 261 262 264 264 262 259 256 253 251 252 252 253 254 255 256 256 256 255 253 250 246 244
249 249 248 247 247 247 247 247 246 245 245 245 244 244 244 244 244 243 243 242 242 243 244 246 247 249 251 253 255 256 258 258 257 255 254 253 252 250 247 246 246 246 246 245 245 246 246 247 248 251 253 253 252 253 256 257 257 259 260 261 261 260 260 260 262 263 262 261 261 260 259 258 256 255 254 255 257 258 259 260 259 258 254 251 248
248 249 250 251 251 250 249 248 248 248 247 247 247 247 246 246 246 245 245 245 244 243 244 245 247 248 249 251 252 254 255 257 258 258 257 256 255 254 251 251 251 252 253 252 247 242 243 246 246 248 251 253 254 255 257 259 260 261 262 264 264 264 264 263 263 261 259 257 256 255 257 258 258 257 257 257 258 260 261 261 261 260 258 255 253
248 249 250 252 254 254 253 252 251 250 249 249 249 249 249 248 248 248 247 247 247 246 245 246 247 248 249 250 251 252 253 254 256 257 257 257 257 257 255 254 254 254 255 255 251 244 243 245 245 246 248 250 251 253 255 257 260 261 263 264 265 267 269 269 267 264 260 258 255 252 252 254 256 258 259 259 260 261 263 263 262 261 261 261 259
249 249 250 251 253 254 255 255 254 253 252 251 250 250 250 250 250 250 250 249 249 249 248 248 248 249 250 250 250 250 251 252 253 255 256 257 258 259 258 257 257 256 255 254 253 251 248 247 246 245 246 247 248 249 252 255 257 259 262 264 265 268 270 271 271 268 265 263 262 259 256 253 253 255 256 258 260 261 262 262 261 260 262 263 261
250 250 249 250 251 253 254 256 256 256 255 254 253 252 251 251 251 251 251 251 251 250 250 250 250 250 251 251 251 251 251 251 251 252 254 255 257 258 258 257 257 258 257 255 254 253 252 250 248 247 246 246 248 250 252 254 255 257 260 262 264 267 269 271 272 271 270 269 267 265 263 259 256 254 253 253 254 257 260 261 260 260 262 262 259
250 249 249 249 250 250 252 254 255 256 257 256 256 255 254 253 252 252 252 252 252 252 251 251 251 251 252 252 252 252 252 252 252 251 252 253 254 255 256 255 255 256 257 257 256 255 254 253 252 252 250 249 249 251 253 255 256 258 260 261 261 263 266 268 270 271 272 272 271 267 265 262 259 257 254 250 249 251 255 258 260 260 260 260 257
253 251 250 250 249 248 249 251 253 254 256 256 257 257 257 256 255 254 253 253 253 253 253 252 252 252 252 253 253 253 253 253 253 252 252 252 252 253 253 253 252 253 255 256 257 257 256 255 255 254 254 253 252 253 253 254 256 259 261 262 262 262 263 265 268 269 270 272 271 268 265 262 259 256 254 252 249 248 249 251 255 258 259 259 259
256 256 254 253 251 250 249 248 249 251 253 255 256 257 257 257 257 256 256 255 254 254 254 254 253 252 252 253 254 254 254 253 253 253 253 252 252 252 252 252 251 250 251 252 254 256 257 257 258 257 256 255 256 256 255 255 255 256 259 261 263 264 265 264 265 267 269 269 268 265 262 260 258 255 254 253 251 249 247 246 248 251 255 257 260
258 258 258 257 256 254 253 251 250 250 251 253 254 256 256 257 257 257 257 256 256 255 255 255 254 254 253 253 254 254 254 254 253 253 253 253 253 252 252 251 251 250 249 249 251 253 255 256 258 259 258 258 257 258 258 258 258 257 258 260 262 264 267 266 265 266 269 269 268 265 261 258 258 257 255 253 251 248 246 245 244 244 247 251 255
Height
5915 5916 5917 5918 5918 5919 5920 5921 5922 5923 5924 5925 5926 5927 5928 5929 5930 5931 5931 5932 5933 5934 5935 5935 5935 5936 5937 5938 5938 5938 5939 5939 5939 5940 5940 5941 5941 5941 5942 5942 5943 5944 5945 5945 5946 5946 5947 5947 5948 5949 5949 5950 5951 5952 5952 5953 5953 5954 5955 5955 5956 5956 5956 5956 5956 5957 5958 5958 5959 5959 5960 5961 5961 5962 5963 5964 5964 5965 5966 5967 5968 5968 5969 5970 5971
5914 5916 5917 5919 5919 5920 5921 5922 5923 5923 5924 5925 5926 5927 5929 5930 5930 5931 5932 5933 5933 5934 5935 5935 5936 5937 5938 5939 5939 5939 5939 5940 5940 5941 5941 5942 5943 5943 5943 5944 5944 5945 5946 5947 5948 5948 5949 5949 5950 5950 5951 5952 5952 5953 5954 5954 5955 5956 5956 5957 5958 5958 5958 5959 5959 5959 5960 5960 5961 5962 5962 5963 5963 5964 5965 5966 5966 5967 5968 5969 5970 5970 5971 5971 5972
5914 5915 5917 5918 5920 5921 5922 5923 5923 5924 5925 5926 5927 5928 5929 5930 5931 5932 5932 5933 5934 5935 5935 5936 5937 5938 5939 5940 5940 5940 5940 5941 5941 5942 5942 5943 5944 5944 5945 5945 5946 5947 5948 5948 5949 5950 5950 5951 5952 5952 5953 5953 5954 5955 5955 5956 5956 5957 5958 5958 5959 5959 5960 5960 5960 5961 5961 5962 5963 5964 5964 5965 5965 5966 5968 5968 5968 5969 5970 5970 5971 5972 5972 5973 5974
5913 5914 5916 5918 5919 5921 5922 5923 5924 5925 5926 5927 5927 5928 5929 5930 5931 5932 5933 5933 5934 5935 5936 5936 5937 5938 5939 5940 5941 5941 5941 5942 5943 5943 5944 5945 5945 5946 5946 5947 5947 5948 5949 5950 5951 5951 5952 5953 5953 5954 5954 5955 5956 5956 5957 5957 5958 5958 5959 5960 5960 5961 5961 5962 5962 5962 5963 5964 5965 5965 5966 5967 5967 5968 5969 5969 5970 5970 5971 5972 5972 5973 5973 5974 5975
5913 5914 5915 5917 5918 5920 5921 5922 5924 5925 5926 5927 5928 5929 5930 5931 5932 5933 5933 5934 5934 5935 5936 5937 5938 5939 5940 5941 5942 5943 5943 5943 5944 5945 5946 5946 5947 5947 5948 5948 5949 5949 5950 5951 5952 5953 5953 5954 5955 5955 5956 5956 5957 5958 5958 5959 5959 5960 5960 5961 5962 5962 5963 5963 5964 5964 5965 5966 5966 5967 5968 5968 5969 5969 5970 5970 5971 5972 5972 5973 5974 5974 5975 5975 5976
5913 5914 5915 5916 5917 5919 5921 5922 5923 5924 5925 5926 5928 5929 5930 5931 5932 5933 5933 5934 5935 5936 5937 5938 5939 5940 5941 5942 5943 5944 5944 5944 5945 5946 5947 5948 5948 5949 5949 5950 5950 5951 5952 5952 5953 5954 5955 5955 5956 5957 5957 5958 5958 5959 5959 5960 5960 5961 5962 5962 5963 5963 5964 5965 5965 5966 5967 5967 5968 5969 5969 5970 5970 5971 5971 5971 5972 5973 5973 5974 5974 5975 5976 5976 5977
5913 5914 5915 5915 5916 5918 5920 5922 5923 5924 5925 5926 5928 5929 5931 5932 5932 5933 5934 5934 5935 5936 5937 5939 5940 5941 5942 5943 5943 5944 5945 5945 5946 5947 5948 5949 5949 5950 5950 5951 5951 5952 5953 5953 5954 5955 5956 5956 5957 5958 5958 5959 5959 5960 5961 5961 5962 5962 5963 5963 5964 5965 5965 5966 5967 5967 5968 5969 5969 5970 5970 5971 5971 5972 5972 5972 5973 5973 5974 5975 5975 5976 5977 5978 5979
5912 5913 5914 5915 5916 5917 5919 5921 5922 5923 5924 5925 5927 5929 5930 5931 5932 5933 5934 5934 5935 5936 5938 5939 5940 5941 5942 5943 5944 5945 5945 5946 5947 5948 5949 5950 5950 5951 5952 5952 5952 5953 5954 5954 5955 5956 5956 5957 5958 5959 5959 5960 5960 5961 5962 5963 5963 5964 5964 5965 5965 5966 5966 5967 5968 5968 5969 5969 5970 5971 5971 5972 5972 5973 5973 5974 5974 5974 5975 5975 5976 5977 5978 5979 5980
5911 5912 5913 5914 5915 5916 5918 5920 5922 5923 5924 5925 5927 5928 5930 5931 5932 5933 5934 5934 5935 5936 5938 5939 5940 5941 5942 5943 5944 5945 5946 5947 5948 5948 5949 5950 5951 5952 5952 5953 5954 5954 5955 5955 5956 5956 5957 5958 5959 5959 5960 5960 5961 5962 5963 5963 5964 5965 5965 5966 5966 5967 5967 5968 5968 5969 5970 5970 5971 5971 5972 5973 5973 5974 5974 5975 5975 5975 5976 5976 5977 5978 5979 5980 5981
5910 5911 5912 5913 5914 5915 5917 5919 5921 5922 5924 5925 5926 5928 5929 5930 5932 5932 5933 5934 5935 5936 5937 5939 5940 5941 5942 5943 5944 5945 5946 5947 5948 5949 5950 5951 5952 5952 5953 5954 5955 5955 5956 5956 5957 5957 5958 5958 5959 5960 5961 5961 5962 5962 5963 5964 5965 5965 5966 5967 5967 5968 5968 5969 5969 5970 5971 5971 5972 5972 5973 5973 5974 5975 5975 5976 5976 5976 5977 5978 5978 5979 5980 5980 5981
5910 5910 5912 5913 5914 5915 5916 5917 5919 5921 5922 5924 5926 5927 5929 5930 5931 5932 5933 5934 5935 5936 5937 5938 5940 5941 5942 5943 5944 5945 5946 5948 5949 5949 5950 5951 5952 5953 5954 5955 5956 5956 5957 5957 5958 5958 5958 5959 5960 5960 5961 5962 5962 5963 5964 5964 5965 5966 5967 5967 5968 5968 5969 5969 5970 5971 5971 5972 5972 5973 5973 5974 5975 5975 5976 5977 5977 5977 5978 5979 5979 5980 5980 5981 5981
5909 5910 5911 5913 5914 5915 5916 5917 5918 5919 5921 5923 5925 5926 5928 5929 5931 5932 5933 5934 5935 5936 5936 5937 5939 5940 5941 5942 5944 5945 5946 5948 5949 5950 5951 5951 5952 5954 5954 5955 5956 5957 5957 5958 5958 5959 5959 5960 5960 5961 5961 5962 5963 5963 5964 5965 5966 5966 5967 5968 5968 5969 5969 5970 5971 5972 5972 5973 5973 5974 5974 5974 5975 5976 5977 5977 5978 5978 5979 5979 5980 5981 5981 5982 5982
5908 5909 5910 5912 5912 5914 5917 5918 5919 5919 5920 5921 5923 5925 5927 5929 5930 5931 5932 5933 5935 5936 5936 5937 5938 5939 5941 5942 5944 5945 5946 5948 5949 5950 5951 5952 5953 5954 5955 5955 5956 5957 5958 5959 5959 5960 5960 5961 5961 5961 5962 5963 5963 5964 5964 5965 5966 5967 5967 5968 5969 5969 5970 5970 5971 5972 5973 5973 5974 5974 5975 5975 5976 5977 5977 5978 5979 5979 5979 5980 5981 5982 5983 5983 5983
5906 5907 5908 5909 5910 5912 5915 5917 5918 5919 5920 5921 5922 5924 5926 5928 5929 5931 5932 5933 5934 5935 5936 5937 5938 5939 5940 5941 5943 5945 5946 5947 5949 5950 5951 5952 5953 5954 5955 5956 5956 5957 5959 5959 5960 5961 5961 5961 5962 5962 5962 5963 5964 5964 5965 5965 5966 5967 5968 5968 5969 5970 5970 5971 5971 5972 5973 5974 5974 5975 5975 5976 5977 5977 5978 5979 5979 5980 5980 5981 5981 5982 5983 5984 5984
5905 5905 5906 5908 5909 5912 5913 5915 5917 5918 5921 5921 5921 5922 5925 5927 5929 5930 5931 5932 5934 5935 5936 5937 5938 5938 5939 5941 5942 5944 5945 5947 5948 5950 5951 5952 5953 5953 5954 5955 5956 5957 5958 5959 5960 5961 5961 5962 5962 5962 5963 5963 5964 5965 5965 5965 5966 5967 5968 5969 5969 5970 5970 5971 5972 5972 5973 5974 5974 5975 5976 5976 5977 5978 5978 5979 5980 5981 5981 5982 5982 5983 5984 5984 5985
5905 5904 5905 5907 5908 5911 5912 5913 5915 5917 5918 5920 5920 5921 5923 5925 5927 5929 5930 5932 5933 5934 5936 5937 5938 5939 5939 5940 5942 5943 5945 5946 5947 5949 5950 5951 5952 5953 5954 5955 5956 5957 5958 5959 5960 5961 5962 5962 5962 5962 5963 5963 5964 5965 5965 5966 5967 5968 5968 5969 5969 5970 5971 5971 5972 5972 5973 5974 5975 5976 5976 5977 5977 5978 5979 5980 5981 5981 5982 5982 5983 5984 5984 5985 5985
5903 5905 5906 5907 5909 5910 5912 5914 5916 5916 5917 5919 5919 5920 5921 5923 5925 5927 5929 5931 5932 5934 5935 5937 5938 5939 5939 5940 5942 5943 5944 5945 5946 5948 5950 5951 5952 5953 5954 5955 5956 5956 5958 5959 5960 5960 5961 5962 5962 5963 5963 5964 5964 5965 5965 5966 5967 5968 5968 5969 5969 5970 5971 5971 5972 5973 5973 5974 5975 5976 5976 5977 5978 5978 5979 5980 5981 5982 5982 5983 5983 5984 5985 5985 5986
5899 5903 5905 5907 5908 5909 5911 5913 5915 5916 5917 5920 5920 5919 5920 5922 5924 5926 5928 5929 5931 5932 5934 5935 5937 5938 5939 5940 5941 5942 5943 5944 5946 5947 5949 5950 5952 5953 5954 5954 5955 5956 5957 5958 5959 5960 5961 5961 5962 5963 5963 5964 5964 5965 5965 5966 5967 5968 5968 5969 5970 5970 5971 5972 5972 5973 5974 5974 5975 5976 5976 5977 5978 5978 5979 5980 5981 5981 5982 5983 5983 5984 5985 5985 5986
5895 5900 5903 5905 5906 5907 5909 5911 5912 5913 5916 5919 5920 5919 5920 5922 5923 5925 5926 5928 5929 5931 5932 5934 5935 5937 5938 5939 5941 5942 5943 5944 5945 5946 5948 5949 5951 5952 5953 5954 5955 5956 5957 5958 5959 5959 5960 5961 5962 5962 5963 5964 5964 5965 5965 5966 5967 5968 5969 5969 5970 5970 5971 5972 5972 5973 5974 5974 5975 5975 5976 5977 5977 5978 5979 5979 5980 5981 5982 5982 5983 5984 5984 5985 5986
5894 5898 5900 5903 5904 5906 5908 5909 5910 5911 5912 5915 5917 5916 5918 5920 5922 5923 5925 5926 5928 5929 5931 5932 5934 5935 5937 5938 5940 5941 5943 5943 5944 5945 5947 5948 5950 5951 5952 5953 5955 5956 5956 5957 5958 5959 5960 5960 5961 5962 5962 5963 5964 5965 5965 5966 5966 5967 5968 5969 5970 5970 5971 5972 5972 5973 5974 5974 5975 5975 5976 5976 5977 5978 5979 5979 5980 5980 5981 5982 5982 5983 5984 5984 5985
5893 5896 5899 5901 5903 5904 5905 5906 5907 5908 5909 5911 5913 5914 5916 5918 5920 5922 5923 5925 5926 5928 5929 5930 5932 5933 5935 5937 5938 5940 5942 5943 5944 5945 5946 5947 5949 5950 5951 5953 5954 5955 5956 5957 5957 5958 5959 5960 5961 5961 5962 5962 5963 5964 5965 5966 5966 5967 5967 5968 5969 5970 5971 5972 5972 5973 5973 5974 5974 5975 5975 5976 5976 5977 5978 5979 5979 5980 5980 5981 5982 5983 5983 5984 5984
5891 5894 5898 5900 5901 5902 5902 5902 5903 5905 5907 5909 5911 5913 5915 5917 5919 5921 5922 5923 5925 5926 5927 5928 5929 5931 5933 5934 5936 5938 5940 5942 5943 5944 5945 5947 5948 5949 5950 5952 5953 5954 5955 5956 5957 5958 5959 5959 5960 5961 5961 5962 5963 5964 5964 5965 5966 5966 5967 5968 5969 5969 5970 5971 5972 5972 5973 5973 5974 5974 5975 5975 5976 5977 5978 5978 5979 5979 5980 5980 5981 5982 5983 5983 5983
5889 5892 5895 5897 5900 5902 5903 5903 5903 5904 5906 5908 5910 5911 5913 5915 5917 5919 5921 5922 5923 5925 5927 5928 5928 5929 5931 5932 5934 5936 5938 5940 5942 5943 5944 5946 5947 5948 5949 5950 5952 5953 5955 5956 5957 5958 5958 5959 5959 5960 5961 5961 5962 5963 5964 5964 5965 5965 5966 5967 5968 5969 5969 5970 5971 5971 5972 5973 5973 5974 5974 5975 5976 5976 5977 5978 5978 5979 5979 5980 5980 5981 5981 5982 5983
5887 5890 5891 5893 5896 5900 5902 5902 5902 5903 5906 5907 5908 5910 5912 5913 5915 5917 5919 5920 5922 5925 5927 5929 5929 5928 5929 5930 5932 5934 5936 5938 5940 5941 5943 5944 5945 5947 5948 5949 5950 5952 5953 5955 5956 5957 5957 5958 5959 5959 5960 5961 5961 5962 5963 5963 5964 5965 5965 5966 5967 5968 5968 5969 5970 5970 5971 5972 5972 5973 5974 5974 5975 5976 5976 5977 5977 5978 5978 5979 5979 5980 5980 5981 5981
5885 5887 5889 5890 5892 5895 5897 5898 5899 5902 5904 5905 5907 5909 5911 5913 5913 5914 5916 5917 5919 5922 5926 5928 5928 5928 5929 5930 5930 5931 5933 5935 5937 5939 5941 5942 5944 5945 5946 5948 5949 5950 5952 5953 5954 5955 5956 5957 5957 5958 5959 5960 5961 5961 5962 5963 5963 5964 5965 5965 5966 5967 5967 5968 5968 5969 5970 5971 5971 5972 5973 5973 5974 5975 5975 5976 5976 5977 5977 5978 5978 5979 5979 5980 5980
5882 5885 5887 5889 5890 5892 5893 5895 5897 5899 5901 5903 5905 5906 5908 5910 5912 5912 5913 5914 5916 5918 5922 5924 5925 5926 5928 5929 5929 5930 5931 5933 5935 5936 5938 5940 5942 5943 5945 5946 5947 5949 5950 5952 5953 5954 5955 5955 5956 5957 5958 5959 5960 5960 5961 5962 5962 5963 5964 5964 5965 5965 5966 5966 5967 5968 5969 5969 5970 5971 5972 5972 5973 5974 5974 5974 5975 5975 5976 5976 5977 5977 5978 5978 5979
5879 5882 5884 5887 5888 5890 5892 5893 5895 5897 5899 5901 5902 5903 5905 5906 5909 5910 5911 5912 5914 5915 5918 5920 5922 5924 5926 5927 5928 5929 5929 5930 5931 5933 5936 5938 5939 5941 5942 5944 5945 5947 5949 5950 5951 5952 5953 5954 5955 5956 5957 5957 5958 5959 5960 5960 5961 5962 5962 5963 5963 5964 5964 5965 5966 5966 5967 5968 5969 5970 5970 5971 5972 5972 5973 5973 5973 5974 5974 5975 5975 5976 5976 5977 5977
5876 5878 5881 5884 5886 5888 5890 5892 5893 5894 5895 5897 5898 5900 5902 5902 5904 5906 5908 5911 5912 5914 5916 5918 5919 5920 5923 5925 5925 5925 5926 5928 5929 5930 5932 5934 5936 5938 5940 5941 5943 5945 5946 5948 5949 5951 5951 5952 5953 5954 5955 5956 5957 5957 5958 5959 5959 5960 5961 5961 5962 5963 5963 5964 5964 5965 5965 5966 5967 5968 5969 5969 5970 5970 5971 5971 5972 5972 5972 5973 5973 5973 5974 5975 5975
5873 5875 5878 5880 5883 5885 5887 5889 5890 5892 5892 5893 5895 5898 5900 5901 5901 5902 5904 5907 5909 5911 5913 5915 5915 5916 5919 5922 5923 5922 5925 5927 5928 5928 5929 5931 5933 5935 5937 5939 5940 5942 5943 5945 5947 5948 5949 5951 5951 5952 5953 5954 5955 5956 5956 5957 5957 5958 5959 5960 5961 5961 5962 5962 5963 5963 5964 5964 5965 5966 5967 5967 5968 5968 5969 5970 5970 5970 5970 5971 5971 5971 5972 5973 5973
5870 5872 5874 5877 5879 5881 5883 5885 5887 5889 5889 5889 5892 5895 5897 5900 5901 5900 5899 5902 5904 5906 5909 5912 5912 5912 5915 5918 5920 5921 5924 5926 5926 5926 5927 5929 5930 5930 5932 5934 5937 5939 5940 5942 5944 5945 5947 5948 5949 5950 5951 5952 5953 5954 5954 5954 5955 5956 5957 5958 5959 5960 5961 5961 5961 5961 5962 5962 5963 5964 5964 5965 5966 5966 5967 5967 5968 5968 5968 5969 5969 5969 5970 5970 5971
5867 5869 5871 5873 5875 5877 5879 5881 5883 5885 5886 5886 5888 5890 5893 5896 5898 5897 5896 5898 5901 5903 5906 5908 5909 5910 5910 5913 5917 5919 5921 5922 5923 5923 5925 5928 5928 5928 5928 5929 5932 5934 5936 5938 5940 5942 5943 5945 5946 5947 5948 5950 5951 5951 5951 5952 5952 5953 5954 5955 5957 5958 5959 5959 5960 5960 5960 5960 5961 5962 5962 5963 5963 5964 5964 5965 5965 5966 5966 5966 5967 5967 5968 5968 5969
5863 5866 5868 5870 5872 5874 5875 5877 5879 5880 5882 5883 5885 5887 5889 5892 5894 5894 5894 5896 5898 5900 5902 5904 5906 5908 5909 5911 5914 5916 5917 5918 5917 5917 5919 5924 5926 5927 5927 5927 5928 5930 5931 5932 5935 5937 5939 5941 5942 5943 5944 5946 5947 5948 5948 5949 5949 5950 5951 5952 5954 5955 5956 5957 5958 5958 5958 5959 5959 5960 5960 5961 5961 5962 5962 5962 5963 5963 5964 5964 5965 5965 5965 5966 5967
5860 5862 5864 5866 5868 5870 5872 5873 5875 5876 5878 5880 5882 5883 5886 5888 5890 5892 5893 5895 5896 5898 5899 5900 5903 5906 5908 5910 5912 5914 5915 5915 5915 5915 5915 5919 5923 5926 5926 5926 5926 5928 5929 5930 5931 5933 5935 5936 5938 5939 5941 5942 5943 5944 5945 5945 5945 5946 5947 5948 5950 5951 5953 5954 5955 5956 5956 5957 5957 5958 5958 5959 5959 5960 5960 5960 5961 5961 5961 5962 5962 5963 5963 5964 5964
5856 5858 5861 5863 5865 5867 5869 5870 5872 5873 5875 5877 5879 5881 5883 5885 5887 5889 5890 5892 5894 5895 5896 5897 5899 5902 5904 5906 5908 5910 5911 5912 5914 5914 5914 5915 5919 5923 5926 5927 5928 5929 5931 5930 5930 5931 5933 5934 5936 5937 5939 5940 5941 5941 5942 5942 5942 5942 5942 5944 5946 5948 5949 5951 5952 5953 5954 5954 5955 5955 5956 5957 5957 5958 5958 5958 5959 5959 5959 5960 5960 5960 5961 5961 5962
5852 5854 5857 5859 5861 5863 5865 5867 5868 5870 5872 5873 5875 5877 5879 5881 5883 5885 5887 5889 5890 5892 5893 5894 5895 5897 5899 5901 5903 5905 5907 5908 5910 5912 5912 5913 5915 5918 5923 5926 5929 5930 5930 5929 5928 5929 5930 5931 5933 5934 5936 5938 5939 5940 5941 5942 5942 5941 5940 5941 5943 5944 5946 5947 5948 5949 5950 5951 5952 5953 5954 5954 5955 5956 5956 5956 5956 5957 5957 5957 5958 5958 5959 5959 5960
5848 5851 5853 5855 5857 5859 5861 5863 5864 5866 5868 5870 5872 5873 5875 5877 5879 5881 5883 5885 5886 5888 5890 5891 5892 5893 5894 5896 5898 5900 5902 5905 5907 5908 5909 5911 5912 5915 5918 5921 5924 5926 5926 5926 5926 5927 5927 5928 5929 5930 5932 5934 5935 5936 5938 5940 5941 5941 5940 5941 5942 5943 5944 5945 5946 5946 5947 5948 5949 5950 5951 5952 5952 5953 5953 5954 5954 5954 5954 5955 5956 5956 5956 5957 5958
5844 5846 5849 5850 5852 5855 5856 5858 5860 5862 5864 5866 5868 5869 5871 5873 5875 5877 5879 5881 5883 5884 5886 5888 5889 5890 5891 5892 5893 5895 5898 5900 5903 5905 5907 5909 5910 5912 5914 5917 5919 5920 5922 5924 5926 5926 5927 5928 5928 5929 5930 5931 5931 5931 5933 5935 5937 5938 5938 5939 5940 5942 5943 5945 5945 5945 5945 5945 5946 5947 5948 5949 5950 5950 5951 5951 5951 5951 5952 5952 5953 5953 5954 5955 5955
5839 5842 5844 5846 5848 5850 5852 5854 5856 5858 5860 5862 5864 5866 5867 5869 5871 5873 5874 5876 5878 5880 5881 5883 5885 5886 5888 5889 5890 5892 5894 5896 5898 5900 5903 5906 5907 5909 5911 5913 5915 5917 5918 5920 5922 5923 5924 5925 5926 5927 5928 5929 5930 5930 5931 5932 5933 5934 5934 5934 5935 5937 5940 5942 5944 5945 5945 5944 5944 5944 5944 5945 5947 5947 5947 5947 5947 5948 5948 5949 5949 5950 5951 5952 5953
5835 5838 5840 5841 5843 5846 5847 5850 5852 5853 5855 5857 5860 5862 5863 5864 5866 5868 5870 5872 5874 5875 5876 5878 5879 5881 5883 5885 5887 5888 5890 5892 5894 5896 5899 5902 5904 5905 5907 5909 5911 5912 5914 5916 5917 5918 5919 5920 5922 5923 5924 5925 5926 5927 5928 5929 5930 5931 5931 5931 5932 5933 5935 5937 5938 5940 5941 5942 5942 5942 5942 5942 5943 5943 5943 5944 5944 5944 5945 5945 5945 5945 5947 5949 5949
5831 5833 5834 5835 5839 5841 5842 5844 5847 5848 5850 5853 5855 5856 5858 5860 5862 5864 5866 5868 5869 5871 5872 5873 5874 5876 5878 5880 5882 5884 5886 5888 5890 5892 5895 5897 5899 5901 5903 5904 5906 5907 5909 5911 5914 5914 5915 5916 5917 5918 5920 5921 5922 5923 5924 5925 5925 5926 5927 5928 5929 5931 5932 5932 5933 5935 5936 5938 5938 5939 5939 5939 5939 5940 5940 5940 5940 5941 5941 5941 5941 5941 5944 5945 5944
5824 5826 5828 5830 5833 5835 5836 5839 5842 5843 5845 5848 5850 5851 5852 5855 5857 5858 5861 5863 5865 5866 5868 5869 5870 5871 5872 5875 5877 5879 5881 5883 5885 5888 5890 5892 5894 5896 5899 5900 5901 5902 5904 5906 5909 5911 5911 5912 5913 5914 5916 5917 5919 5920 5920 5921 5921 5921 5922 5922 5924 5926 5927 5928 5929 5931 5933 5934 5934 5934 5934 5934 5934 5935 5936 5937 5937 5938 5938 5938 5938 5939 5940 5941 5940
5818 5819 5822 5826 5827 5828 5830 5833 5836 5837 5839 5842 5844 5845 5847 5849 5851 5853 5855 5858 5860 5861 5863 5865 5865 5866 5868 5870 5872 5874 5876 5878 5881 5883 5885 5887 5889 5891 5893 5895 5897 5898 5900 5902 5904 5906 5907 5908 5909 5910 5911 5913 5914 5915 5916 5917 5917 5917 5917 5918 5919 5921 5921 5922 5925 5928 5930 5931 5931 5930 5929 5929 5929 5931 5932 5933 5935 5935 5935 5935 5936 5937 5938 5937 5936
5812 5813 5817 5820 5821 5822 5824 5826 5828 5831 5834 5835 5837 5840 5842 5843 5845 5847 5849 5852 5854 5856 5858 5859 5861 5862 5863 5865 5867 5869 5871 5873 5876 5878 5880 5883 5884 5886 5887 5889 5891 5893 5895 5897 5899 5901 5903 5904 5905 5906 5907 5908 5909 5910 5911 5912 5913 5913 5914 5915 5916 5917 5917 5918 5921 5923 5925 5926 5927 5927 5926 5927 5928 5928 5929 5930 5931 5932 5933 5934 5935 5935 5935 5934 5933
5807 5809 5811 5813 5814 5816 5818 5820 5822 5825 5827 5829 5831 5833 5835 5837 5839 5840 5843 5845 5847 5849 5852 5853 5855 5856 5858 5859 5861 5863 5865 5868 5870 5872 5875 5877 5879 5881 5883 5884 5885 5887 5889 5891 5894 5896 5898 5899 5900 5901 5902 5903 5904 5906 5907 5908 5909 5910 5911 5911 5912 5913 5914 5915 5917 5918 5919 5920 5921 5922 5923 5924 5925 5926 5926 5927 5927 5928 5930 5932 5933 5933 5932 5931 5931
5802 5804 5807 5808 5808 5809 5811 5813 5815 5818 5820 5822 5825 5826 5828 5830 5832 5834 5836 5837 5839 5842 5845 5847 5848 5849 5851 5853 5855 5857 5859 5862 5864 5866 5869 5871 5873 5876 5878 5879 5880 5882 5884 5886 5889 5891 5893 5894 5896 5897 5897 5897 5898 5900 5902 5904 5905 5906 5907 5907 5908 5909 5910 5911 5913 5914 5914 5915 5916 5916 5918 5919 5920 5921 5923 5924 5924 5924 5925 5927 5929 5930 5930 5930 5930
5796 5799 5802 5803 5803 5803 5805 5807 5809 5811 5813 5815 5817 5819 5821 5823 5825 5827 5828 5830 5833 5835 5837 5839 5841 5842 5844 5846 5847 5849 5853 5856 5858 5860 5862 5865 5867 5869 5872 5873 5874 5876 5879 5881 5884 5886 5887 5889 5890 5892 5892 5893 5893 5895 5897 5899 5900 5901 5902 5902 5904 5905 5905 5906 5908 5909 5910 5911 5913 5913 5914 5915 5916 5916 5917 5920 5921 5921 5921 5922 5924 5926 5927 5927 5927
5790 5793 5795 5796 5798 5799 5800 5801 5802 5804 5806 5808 5810 5812 5814 5816 5818 5819 5821 5823 5825 5828 5829 5832 5834 5836 5837 5838 5839 5842 5845 5848 5851 5853 5855 5858 5861 5863 5866 5868 5869 5870 5873 5875 5878 5880 5882 5884 5885 5887 5888 5889 5889 5890 5892 5893 5894 5895 5897 5897 5899 5900 5901 5901 5903 5903 5904 5906 5909 5910 5911 5912 5913 5913 5913 5914 5916 5917 5917 5917 5919 5921 5922 5923 5923
5783 5786 5788 5790 5793 5794 5795 5796 5797 5798 5799 5801 5803 5804 5806 5809 5811 5812 5814 5816 5818 5820 5822 5824 5827 5829 5830 5830 5831 5834 5838 5841 5843 5846 5848 5850 5853 5856 5859 5862 5863 5864 5866 5869 5871 5874 5876 5878 5880 5882 5883 5884 5886 5886 5887 5888 5889 5890 5892 5893 5894 5895 5896 5897 5898 5898 5899 5901 5903 5905 5907 5908 5910 5910 5909 5909 5909 5911 5912 5914 5915 5916 5917 5918 5919
5776 5778 5781 5784 5786 5788 5790 5791 5791 5792 5793 5794 5796 5797 5799 5801 5803 5805 5807 5809 5811 5813 5815 5817 5819 5822 5822 5821 5823 5827 5831 5833 5834 5837 5839 5842 5845 5848 5852 5855 5857 5858 5860 5862 5864 5866 5869 5871 5874 5876 5878 5879 5880 5881 5882 5884 5885 5886 5887 5888 5890 5891 5892 5893 5893 5893 5895 5897 5898 5900 5901 5903 5905 5906 5905 5905 5905 5905 5906 5908 5909 5910 5911 5913 5915
5769 5771 5774 5776 5779 5781 5783 5785 5786 5787 5787 5788 5789 5791 5792 5794 5796 5798 5800 5802 5804 5806 5807 5809 5811 5813 5814 5815 5817 5820 5822 5824 5825 5827 5830 5833 5836 5839 5843 5846 5849 5851 5853 5856 5858 5859 5861 5864 5867 5869 5871 5873 5875 5876 5877 5879 5880 5882 5883 5884 5885 5886 5887 5888 5888 5888 5891 5893 5894 5894 5895 5896 5898 5899 5900 5902 5902 5902 5902 5902 5903 5904 5906 5908 5910
5762 5764 5766 5768 5771 5773 5775 5778 5780 5781 5782 5783 5783 5784 5785 5787 5789 5791 5793 5795 5797 5799 5800 5802 5804 5805 5807 5809 5811 5812 5813 5815 5817 5819 5821 5825 5828 5830 5833 5837 5840 5843 5845 5848 5851 5852 5854 5857 5859 5862 5864 5867 5869 5870 5872 5873 5875 5877 5878 5879 5880 5881 5882 5884 5883 5884 5886 5889 5889 5888 5889 5890 5891 5893 5895 5897 5898 5898 5899 5898 5898 5898 5899 5901 5903